Hourly Data Report for October 26, 2016

All times are specified in Local Standard Time (LST). Add 1 hour to adjust for Daylight Saving Time where and when it is observed.

PETAWAWA AWOS 2
ONTARIO

45°57'00.000" N
77°19'00.000" W
130.10 m
6106396
71625
YWA

Download Data

Hourly Data (October 2016)
Hourly Data Report for October 26, 2016
Temp Definition
°C
Dew Point Temp Definition
°C
Rel Hum Definition
%
Wind Dir Definition
10's deg

Wind Spd Definition
km/h
Visibility Definition
km
Stn Press Definition
kPa
Hmdx Definition


Wind Chill Definition


Weather Definition


TIME
00:00 0.9 -3.4 73 32 9 14.5 101.43     LegendNANA
01:00 0.1 -4.0 74 32 13 14.5 101.45     LegendNANA
02:00 -1.0 -3.9 81 30 9 14.5 101.46   -4 LegendNANA
03:00 -1.7 -3.9 85 28 6 14.5 101.47   -4 LegendNANA
04:00 -1.6 -4.0 84 30 11 14.5 101.53   -5 LegendNANA
05:00 -2.7 -4.8 85 28 7 14.5 101.58   -6 LegendNANA
06:00 -2.0 -4.8 81 27 7 14.5 101.64   -5 LegendNANA
07:00 -1.4 -4.7 78 27 7 14.5 101.74   -4 Snow
08:00 -1.4 -5.3 75 31 11 14.5 101.78   -5 LegendNANA
09:00 0.5 -6.4 60 34 20 14.5 101.77     LegendNANA
10:00 0.9 -8.0 51 35 17 14.5 101.78     LegendNANA
11:00 1.1 -6.8 56 33 15 14.5 101.76     Snow
12:00 1.8 -7.1 52 32 9 14.5 101.69     LegendNANA
13:00 2.3 -7.1 50 31 9 14.5 101.70     LegendNANA
14:00 3.2 -7.4 46 33 13 14.5 101.67     LegendNANA
15:00 2.7 -7.4 47 35 11 14.5 101.62     LegendNANA
16:00 2.5 -7.5 48 34 11 14.5 101.65     LegendNANA
17:00 2.0 -7.3 50 33 9 14.5 101.66     LegendNANA
18:00 1.5 -6.0 57 5 7 14.5 101.63     LegendNANA
19:00 1.6 -6.3 56 3 7 14.5 101.65     LegendNANA
20:00 -2.3 -6.4 73   0 14.5 101.69     LegendNANA
21:00 -0.8 -5.9 68 8 9 14.5 101.67   -4 LegendNANA
22:00 0.3 -5.6 64 9 9 14.5 101.68     LegendNANA
23:00 0.1 -5.7 65 9 9 14.5 101.67     LegendNANA

Notes on Data Quality.

Legend

  • E = Estimated
  • M = Missing
  • NA = Not Available
  • ‡ = Partner data that is not subject to review by the National Climate Archives
Date modified: